sat.trackr.live / text

‹ back to catalog

STARLINK-3970

NORAD 52706 · 2022-053BC

PAYLOAD ACTIVE UNKNOWN

§ Identity

Operator
Country
US
Launch date
2022-05-18
Launch site
AFETR
Launch vehicle
Mass (kg)
RCS (m²)

Purposes: comms

External: N2YO · Heavens-Above · Gunter

§ Orbital elements

Epoch: 2026-05-24T23:46:27.236064Z

Period
95.44 min
Inclination
53.2126°
Eccentricity
0.0001142
Mean motion
15.08833582 rev/d
Perigee alt
539.0 km
Apogee alt
540.6 km
Semi-major
6,917.9 km
B*
-2.6731e-5
RAAN
151.5916°
Arg perigee
78.7950°
Mean anomaly
281.3171°
Rev number
22,283

§ Raw data

STARLINK-39701 52706U 22053BC  26144.99059301 -.00000713  00000+0 -26731-4 0  99902 52706  53.2126 151.5916 0001142  78.7950 281.3171 15.08833582222836

JSON: /api/v1/satellites/52706 · /tle

For live sub-satellite position, see the globe view (requires WebGL).

§ Visibility from observer

Set your observer location to see the next 7 days of passes ≥ 10°. The values pass through the URL so the page stays shareable.

No JS? Fill the form by hand. The geolocation button needs JavaScript.